Tracking 29892 objects as of 21-Nov-2024
HD Live streaming from Space Station
objects crossing your sky now

STARLINK-2331

Track STARLINK-2331 now!
10-day predictions
STARLINK-2331 is classified as:


NORAD ID: 47875
Int'l Code: 2021-021R
Perigee: 446.2 km
Apogee: 447.6 km
Inclination: 53.0 °
Period: 93.4 minutes
Semi major axis: 6817 km
RCS: Unknown
Launch date: March 14, 2021
Source: United States (US)
Launch site: AIR FORCE EASTERN TEST RANGE (AFETR)
Your satellite tracking list
Your tracking list is empty




NASA's NSSDC Master Catalog

Two Line Element Set (TLE):
1 47875U 21021R   24325.91668981  .00286044  00000-0  63438-2 0  9991
2 47875  53.0487 231.8329 0001036 111.2860 173.1358 15.42141740204392
Source of the keplerian elements: AFSPC